sat.trackr.live / text

‹ back to catalog

COSMOS 2569 (703K)

NORAD 57517 · 2023-114A

PAYLOAD INACTIVE UNKNOWN

§ Identity

Operator
Country
CIS
Launch date
2023-08-07
Launch site
PLMSC
Launch vehicle
Mass (kg)
RCS (m²)

Purposes: earth_obs, nav

External: N2YO · Heavens-Above · Gunter

§ Orbital elements

Epoch: 2026-09-15T08:25:26.319648Z

Period
675.73 min
Inclination
65.3592°
Eccentricity
0.0008593
Mean motion
2.13102618 rev/d
Perigee alt
19,107.9 km
Apogee alt
19,151.8 km
Semi-major
25,508.0 km
B*
0.0000e+0
RAAN
69.5827°
Arg perigee
288.6272°
Mean anomaly
71.3040°
Rev number
2,418

§ Raw data

COSMOS 2569 (703K)1 57517U 23114A   26258.35099907 -.00000007  00000+0  00000+0 0  99972 57517  65.3592  69.5827 0008593 288.6272  71.3040  2.13102618 24188

JSON: /api/v1/satellites/57517 · /tle

For live sub-satellite position, see the globe view (requires WebGL).

§ Visibility from observer

Set your observer location to see the next 7 days of passes ≥ 10°. The values pass through the URL so the page stays shareable.

No JS? Fill the form by hand. The geolocation button needs JavaScript.